Home   Weather   Cascais   Past weeks

Flag for Portugal Past Weather in Cascais, Portugal — Yesterday and Last 2 Weeks

Now
55 °F

Passing clouds.


Feels Like: 55 °F
Forecast: 54 / 68 °F
Wind: 5 mph from Northwest

Location: Lisbon Portela Airport

Current Time: Apr 26, 2017 at 11:04:07 pm

Latest Report: Apr 26, 2017 at 10:00 pm


Visibility: N/A

Pressure: 29.86 "Hg

Humidity: 59%

Dew Point: 41 °F

Location of CascaisLocation

Past Weather in Cascais — Graph

°F

Cascais Temperature Yesterday

Maximum temperature yesterday: 68 °F (at 2:30 pm)
Minimum temperature yesterday: 55 °F (at 1:00 am)
Average temperature yesterday: 60 °F

High & Low Weather Summary for the Past Weeks

 TemperatureHumidityPressure
High82 °F (Apr 12, 3:30 pm)94% (Apr 13, 6:30 am)30.18 "Hg (Apr 13, 6:30 am)
Low52 °F (Apr 17, 5:00 am)16% (Apr 17, 4:00 pm)29.77 "Hg (Apr 19, 3:30 am)
Average64 °F66%30.01 "Hg
* Reported Apr 11 10:00 pm — Apr 26 10:00 pm, Cascais, Weather by CustomWeather, © 2017

Note: Actual official high and low records may vary slightly from our data, if they occured in-between our weather recording intervals... More about our weather records

Advertising

Cascais Weather History for the Previous 24 Hours

Scroll right to see more
 ConditionsComfort  
Time TempWeatherWind HumidityBarometerVisibility
10:00 pm
Wed, Apr 26
55 °FPassing clouds.5 mph59%29.86 "HgN/A
9:30 pm55 °FPassing clouds.8 mph59%29.86 "HgN/A
9:00 pm55 °FPassing clouds.10 mph59%29.86 "HgN/A
8:30 pm55 °FPassing clouds.9 mph59%29.86 "HgN/A
7:30 pm57 °FPassing clouds.12 mph55%29.86 "HgN/A
7:00 pm57 °FPassing clouds.10 mph51%29.86 "HgN/A
6:30 pm59 °FPassing clouds.13 mph51%29.86 "HgN/A
6:00 pm59 °FPassing clouds.14 mph51%29.86 "HgN/A
5:30 pm59 °FPassing clouds.13 mph55%29.86 "HgN/A
5:00 pm59 °FPassing clouds.13 mph51%29.86 "HgN/A
4:30 pm59 °FPassing clouds.13 mph55%29.86 "HgN/A
4:00 pm61 °FPassing clouds.14 mph52%29.86 "HgN/A
3:30 pm61 °FPassing clouds.12 mph55%29.86 "HgN/A
3:00 pm63 °FPassing clouds.10 mph52%29.86 "HgN/A
2:30 pm63 °FPassing clouds.9 mph56%29.86 "HgN/A
2:00 pm63 °FScattered clouds.9 mph56%29.86 "HgN/A
1:30 pm63 °FScattered clouds.9 mph56%29.86 "HgN/A
1:00 pm63 °FScattered clouds.13 mph56%29.89 "HgN/A
12:30 pm63 °FPartly sunny.12 mph59%29.89 "HgN/A
12:00 pm61 °FPartly sunny.12 mph63%29.89 "HgN/A
11:30 am63 °FScattered clouds.12 mph64%29.89 "HgN/A
10:30 am61 °FScattered clouds.14 mph68%29.86 "HgN/A
10:00 am61 °FScattered clouds.12 mph68%29.86 "HgN/A
9:30 am59 °FScattered clouds.9 mph72%29.86 "HgN/A
9:00 am57 °FScattered clouds.7 mph77%29.86 "HgN/A
8:30 am57 °FPassing clouds.8 mph77%29.89 "HgN/A
8:00 am55 °FPassing clouds.5 mph82%29.89 "HgN/A
7:30 am54 °FPassing clouds.1 mph88%29.86 "HgN/A
7:00 am54 °FPassing clouds.3 mph88%29.86 "HgN/A
6:30 am54 °FPassing clouds.2 mph88%29.86 "HgN/A
6:00 am54 °FPassing clouds.5 mph88%29.86 "HgN/A
5:30 am55 °FPassing clouds.5 mph88%29.86 "HgN/A
5:00 am55 °FPassing clouds.5 mph88%29.86 "HgN/A
4:30 am55 °FPassing clouds.5 mph88%29.86 "HgN/A
4:00 am55 °FPassing clouds.6 mph88%29.86 "HgN/A
3:30 am55 °FPassing clouds.5 mph88%29.86 "HgN/A
3:00 am55 °FPassing clouds.6 mph82%29.89 "HgN/A
2:30 am55 °FPassing clouds.6 mph82%29.89 "HgN/A
2:00 am55 °FPassing clouds.6 mph82%29.89 "HgN/A
1:30 am55 °FClear.7 mph82%29.92 "Hg10 mi
1:00 am55 °FClear.5 mph82%29.92 "Hg10 mi
12:30 am57 °FPassing clouds.6 mph77%29.92 "HgN/A
12:00 am57 °FPassing clouds.7 mph77%29.92 "HgN/A
11:30 pm
Tue, Apr 25
57 °FPassing clouds.8 mph82%29.92 "HgN/A
11:00 pm57 °FPassing clouds.10 mph82%29.92 "HgN/A
Weather by CustomWeather, © 2017

See weather overviewHow to use our weather pages